Tracking 25734 objects as of 26-May-2022
HD Live streaming from Space Station
objects crossing your sky now

CZ-3B DEB

Track CZ-3B DEB now!


NORAD ID: 40814
Int'l Code: 2010-042X
Perigee: 819.1 km
Apogee: 41,437.9 km
Inclination: 26.0 °
Period: 756.4 minutes
Semi major axis: 27499 km
RCS: Unknown
Launch date: September 4, 2010
Source: People's Republic of China (PRC)
Launch site: Xichang Space Center, China (XSC)

Note: This is SATELLITE DEBRIS
aabbcc
Your satellite tracking list
Your tracking list is empty




NASA's NSSDC Master Catalog

Two Line Element Set (TLE):
1 40814U 10042X   22143.72157536  .00000048  00000-0  44368-2 0  9991
2 40814  26.0050 185.3084 7385379 236.6717  31.3265  1.90377933 52486
Source of the keplerian elements: AFSPC